Regional Weather Roundup
Issued by NWS Austin/San Antonio, TX

Home | Current Version | Previous Version | Text Only | Print | Product List | Glossary On
Versions: 1 2 3 4 5 6 7 8 9 10 11 12 13 14 15 16 17 18 19 20 21 22 23 24 25 26 27 28 29 30 31 32 33 34 35 36 37 38 39 40 41 42 43 44 45 46 47 48 49 50
000
ASUS44 KEWX 240101
RWREWX
SOUTH TEXAS REGIONAL WEATHER ROUNDUP
NATIONAL WEATHER SERVICE AUSTIN/SAN ANTONIO TX
800 PM CDT MON OCT 23 2017

NOTE: "FAIR" INDICATED FEW OR NO CLOUDS BELOW 12,000 FEET WITH NO
SIGNIFICANT WEATHER AND/OR OBSTRUCTIONS TO VISIBILITY.

* - THESE STATIONS ARE NOT NWS OR FAA STATIONS...AND ARE NOT SUBJECT
    TO NWS AND FAA QUALITY CONTROL.

TXZ171-172-183>190-240200-
TEXAS HILL COUNTRY AND EDWARDS PLATEAU

CITY           SKY/WX    TMP DP  RH WIND       PRES   REMARKS
JUNCTION       CLEAR     72  50  45 CALM      30.08R
*LLANO         CLEAR     70  52  52 CALM      30.10S
BURNET         CLEAR     70  52  52 SE3       30.11R
*HORSESHOE BAY CLEAR     70  51  51 SE5       30.09R
*KERRVILLE     CLEAR     67  54  62 CALM      30.10R
*FREDERICKSBRG CLEAR     66  49  54 CALM      30.10R
*ROCKSPRINGS   NOT AVBL
*BOERNE STAGE  CLEAR    N/A N/A N/A CALM      30.11R
*CASTROVILLE   CLEAR     73  49  43 CALM      30.07R
HONDO          CLEAR     71  53  52 CALM      30.07R
*UVALDE        CLEAR     70  55  59 CALM      30.07R
DEL RIO        CLEAR     76  60  57 E5        30.04R
LAUGHLIN AFB   CLEAR     73  62  69 E2        30.05R
CARRIZO SPRGS  CLEAR     68  59  73 CALM      30.03R
*EAGLE PASS    NOT AVBL
$$

TXZ173-191>194-202-209-217>225-228-240200-
CENTRAL AND SOUTH CENTRAL TEXAS

CITY           SKY/WX    TMP DP  RH WIND       PRES   REMARKS
GEORGETOWN     CLEAR     70  51  51 S3        30.09S
AUSTIN/BERGSTM CLEAR     63  54  72 CALM      30.08R
AUSTIN/MABRY   CLEAR     70  51  51 CALM      30.10R
*AUSTIN/EXEC   CLEAR     68  50  52 CALM      30.09R
*LAGO VISTA    CLEAR     71  48  45 E6        30.10R
SAN MARCOS     CLEAR     64  48  56 E5        30.09R
NEW BRAUNFELS  CLEAR     64  50  60 E3        30.06R
RANDOLPH AFB   CLEAR     67  51  57 CALM      30.07R
PT SAN ANTONIO CLEAR     68  53  58 CALM      30.05R
SAN ANTONIO    PTCLDY    72  49  44 CALM      30.08R
STINSON FIELD  CLEAR     69  54  58 CALM      30.05R
*LA GRANGE     CLEAR     65  59  79 CALM      30.06R
*GIDDINGS      CLEAR     63  54  73 CALM      30.09R
*GONZALES      CLEAR     69  53  55 E3        30.06R
$$

TXZ163>164-176>182-195>201-210>213-226-227-235-240200-
SOUTHEAST TEXAS

CITY           SKY/WX    TMP DP  RH WIND       PRES   REMARKS
COLLEGE STN    CLEAR     66  55  67 CALM      30.07R
*BRYAN         CLEAR     64  53  68 SW3       30.08S
*CALDWELL      CLEAR     62  55  79 CALM      30.08R
*CROCKETT        N/A     59  54  82 CALM      30.09R
*BRENHAM       CLEAR     66  56  69 CALM      30.08S
HUNTSVILLE     CLEAR     63  51  65 CALM      30.07R
CONROE         CLEAR     58  57  97 CALM      30.07R
HOUSTON BUSH   PTCLDY    64  54  69 CALM      30.07R
HOUSTON HOBBY  PTCLDY    68  50  52 S5        30.07R
*HOUSTON SW AP CLEAR     60  54  82 CALM      30.08R
PEARLAND       CLEAR     65  53  65 CALM      30.09R
HOUSTON HOOKS  CLEAR     59  54  83 CALM      30.07R
ELLINGTON FLD  PTCLDY    70  48  46 CALM      30.08R
SUGAR LAND     CLEAR     60  54  80 CALM      30.07R
*HOUSTON EXEC  CLEAR     64  50  59 NE3       30.09R
*CLEVELAND MUN CLEAR     59  57  93 CALM      30.07S
*WHARTON       CLEAR     63  52  67 CALM      30.08R
*COLUMBUS      FAIR      62  55  80 CALM      30.09R
*EAGLE LAKE    CLEAR     65  58  79 CALM      30.07R
$$

TXZ214>216-236>238-240200-
THE UPPER TEXAS COAST

CITY           SKY/WX    TMP DP  RH WIND       PRES   REMARKS
*ORANGE        CLEAR     59  56  91 CALM      30.07S
PORT ARTHUR    CLEAR     62  55  77 SW7       30.05R
GALVESTON      CLEAR     69  56  62 SW3       30.07R
ANGLETON       CLEAR     61  56  83 CALM      30.07R
*BAY CITY      CLEAR     65  56  70 CALM      30.07R
PALACIOS       CLEAR     66  53  63 S6        30.07
$$

TXZ229>234-239>247-240200-
TEXAS COASTAL BEND AND RIO GRANDE PLAINS

CITY           SKY/WX    TMP DP  RH WIND       PRES   REMARKS
VICTORIA       CLEAR     66  54  65 S6        30.07R
*BEEVILLE      CLEAR     68  47  46 SE7       30.06S
ROCKPORT       CLEAR     72  53  51 SE8       30.06S
*PORT ARANSAS  NOT AVBL
*PORT LAVACA   CLEAR     65  53  64 S5        30.07R
*INGLESIDE     NOT AVBL
CORPUS CHRISTI CLEAR     71  53  52 SE8       30.07R
CORPUS NAS     CLEAR     73  56  54 E8        30.07R
*ROBSTOWN      CLEAR     73  52  47 E8        30.07R
ALICE          CLEAR     73  50  44 SE9       30.06R
KINGSVILLE NAS NOT AVBL
COTULLA        CLEAR     75  53  46 E7        30.05R
*FAITH RANCH   CLEAR     73  59  60 SE6       30.05R
LAREDO         CLEAR     77  59  53 N5        30.05R
$$

TXZ248>255-240200-
DEEP SOUTH TEXAS

CITY           SKY/WX    TMP DP  RH WIND       PRES   REMARKS
BROWNSVILLE    CLEAR     74  66  76 E5        30.06R
PORT ISABEL    CLEAR     75  64  68 E10       30.05R
*SOUTH PADRE   NOT AVBL
HARLINGEN      CLEAR     73  64  73 E8        30.05R
*HEBBRONVILLE  CLEAR     76  53  43 E6        30.05R
MCALLEN        CLEAR     80  62  54 E10       30.05R
*WESLACO       CLEAR     76  61  58 E7        30.04R
FALFURRIAS     CLEAR     73  56  53 E6        30.06R
EDINBURG       CLEAR     76  60  56 E7        30.06R
*ZAPATA        CLEAR     76  60  58 CALM      30.03R
$$

TXZ213>215-236>238-242>244-246-247-251-254-255-240200-
CMAN STATIONS

STATION/POSITION TIME  TEMP    WIND        PRES    WAVE
                       AIR SEA DIR/SP/G            HT/PER
                 (UTC) (F)     (DEG/KT/KT) (MB)    (FT/S)
SABINE PASS      0024   68 74  240/  3/  6 1019.2
SEA RIM ST PARK  0000   68     260/  4/  5 1018.2
NORTH JETTY/GLS  0024      75  270/  2/  5 1017.3
EAGLE POINT      0024   71 75     CALM     1018.0
MORGANS POINT    0024   72 76  150/  3/  4 1017.9
PORT O`CONNOR    0024   72 77  140/  7/  8 1017.5
MALAQUITE BEACH  0024   76 80   70/ 11/ 13 1017.6
BAFFIN BAY       0024   75 78   80/ 10/ 11 1018.0
PORT ISABEL      0024   77 81   80/ 10/ 13 1017.5
$$




USA.gov is the U.S. government's official web portal to all federal, state and local government web resources and services.